Miami, FL

12:32 PM EDT on July 23, 2016 (GMT -0400)
Miami International

Weather History for KMIA - October, 2011

Change the Weather History Date:

Tuesday, October 25, 2011

  Actual Average Record
Temperature  
Mean Temperature 76 °F 78 °F  
Max Temperature 83 °F 85 °F 89 °F (2002)
Min Temperature 69 °F 72 °F 52 °F (1937)
Degree Days  
Heating Degree Days 0 0  
Month to date heating degree days 0 0  
Since 1 July heating degree days 0 0  
Cooling Degree Days 11 13  
Month to date cooling degree days 345 384  
Year to date cooling degree days 4331 3996  
Growing Degree Days 25 (Base 50)    
Moisture  
Dew Point 62 °F    
Average Humidity 65    
Maximum Humidity 78    
Minimum Humidity 51    
Precipitation  
Precipitation 0.00 in 0.15 in 1.58 in (1949)
Month to date precipitation 11.84 5.48  
Year to date precipitation 57.26 55.74  
Snow  
Snow 0.00 in - - ()
Month to date snowfall 0.0  
Since 1 July snowfall 0.0  
Since 1 September snowfall 0.0  
Snow Depth 0.00 in    
Sea Level Pressure  
Sea Level Pressure 30.06 in    
Wind  
Wind Speed 9 mph (NNE)    
Max Wind Speed 20 mph    
Max Gust Speed 26 mph    
Visibility 10 miles    
Events      
T = Trace of Precipitation, MM = Missing Value Source: NWS Daily Summary

Daily Weather History Graph

Daily Weather History Graph

Search for Another Location

Airport or City:

Trip Planner

Search our weather history database for the weather conditions in past years. The results will help you decide how hot, cold, wet, or windy it might be!

Date:

Astronomy

Oct. 25, 2011 Rise Set
Actual Time 7:25 AM EDT 6:45 PM EDT
Civil Twilight 7:01 AM EDT 7:08 PM EDT
Nautical Twilight 6:34 AM EDT 7:35 PM EDT
Astronomical Twilight 6:07 AM EDT 8:02 PM EDT
Moon 5:59 AM EDT (10/25) 5:45 PM EDT (10/25)
Length of Visible Light 12h 06m
Length of Day
11h 19m
Waning Crescent, 2% of the Moon is Illuminated
Oct 25
Waning Crescent
Oct 26
New
Nov 2
First Quarter
Nov 10
Full
Nov 18
Last Quarter

Hourly Weather History & Observations

Time (EDT) Temp. Heat Index Dew Point Humidity Pressure Visibility Wind Dir Wind Speed Gust Speed Precip Events Conditions
12:53 AM 71.1 °F - 63.0 °F 75% 30.07 in 10.0 mi NNW 6.9 mph - N/A   Overcast
1:53 AM 70.0 °F - 62.1 °F 76% 30.06 in 10.0 mi North 5.8 mph - N/A   Mostly Cloudy
2:53 AM 70.0 °F - 60.1 °F 71% 30.04 in 10.0 mi North 6.9 mph - N/A   Mostly Cloudy
3:53 AM 70.0 °F - 57.9 °F 65% 30.03 in 10.0 mi NNW 5.8 mph - N/A   Mostly Cloudy
4:53 AM 69.1 °F - 57.9 °F 68% 30.03 in 10.0 mi NNW 6.9 mph - N/A   Mostly Cloudy
5:53 AM 69.1 °F - 59.0 °F 70% 30.04 in 10.0 mi NNW 6.9 mph - N/A   Mostly Cloudy
6:53 AM 69.1 °F - 60.1 °F 73% 30.05 in 10.0 mi NNW 6.9 mph - N/A   Overcast
7:53 AM 69.8 °F - 60.8 °F 73% 30.06 in 10.0 mi North 3.5 mph - N/A   Mostly Cloudy
8:53 AM 72.0 °F - 61.0 °F 68% 30.08 in 10.0 mi North 6.9 mph - N/A   Mostly Cloudy
9:53 AM 73.9 °F - 63.0 °F 68% 30.10 in 10.0 mi Variable 4.6 mph - N/A   Mostly Cloudy
10:53 AM 77.0 °F - 64.9 °F 66% 30.10 in 10.0 mi NNE 5.8 mph - N/A   Mostly Cloudy
11:53 AM 80.1 °F 81.7 °F 64.0 °F 58% 30.10 in 10.0 mi NE 18.4 mph 25.3 mph N/A   Mostly Cloudy
12:53 PM 80.1 °F 81.5 °F 63.0 °F 56% 30.09 in 10.0 mi ENE 13.8 mph 20.7 mph N/A   Mostly Cloudy
1:53 PM 81.0 °F 81.7 °F 61.0 °F 50% 30.07 in 10.0 mi NE 11.5 mph 20.7 mph N/A   Mostly Cloudy
2:53 PM 80.6 °F 81.8 °F 62.6 °F 54% 30.05 in 10.0 mi NE 10.4 mph 20.7 mph N/A   Mostly Cloudy
3:53 PM 81.0 °F 82.2 °F 63.0 °F 54% 30.04 in 10.0 mi NE 15.0 mph 20.7 mph N/A   Mostly Cloudy
4:53 PM 80.1 °F 81.5 °F 63.0 °F 56% 30.04 in 10.0 mi NE 11.5 mph 17.3 mph N/A   Mostly Cloudy
5:53 PM 78.1 °F - 62.1 °F 58% 30.05 in 10.0 mi ENE 11.5 mph 20.7 mph N/A   Mostly Cloudy
6:53 PM 77.0 °F - 62.1 °F 60% 30.05 in 10.0 mi NE 10.4 mph - N/A   Mostly Cloudy
7:53 PM 77.0 °F - 62.1 °F 60% 30.06 in 10.0 mi NE 5.8 mph - N/A   Mostly Cloudy
8:53 PM 77.0 °F - 64.4 °F 65% 30.06 in 10.0 mi NE 5.8 mph - N/A   Mostly Cloudy
9:53 PM 75.9 °F - 64.9 °F 69% 30.07 in 10.0 mi NE 6.9 mph - N/A   Scattered Clouds
10:53 PM 75.9 °F - 64.9 °F 69% 30.07 in 10.0 mi NE 8.1 mph - N/A   Scattered Clouds
11:53 PM 77.0 °F - 64.9 °F 66% 30.06 in 10.0 mi ENE 8.1 mph - N/A   Mostly Cloudy